EN

Hourly Weather Dzieciolowo

Today, 29 October, Thursday

Time Temperature Precipitation Wind Pressure Humidity
00:00 +6°C° 0 mm 4 mps 746 mmHg 94%
01:00 +7°C° 0 mm 3 mps 746 mmHg 95%
02:00 +6°C° 0 mm 4 mps 746 mmHg 95%
03:00 +6°C° 0 mm 4 mps 746 mmHg 95%
04:00 +6°C° 0 mm 4 mps 745 mmHg 96%
05:00 +6°C° 0 mm 4 mps 745 mmHg 94%
06:00 +6°C° 0 mm 4 mps 745 mmHg 92%
07:00 +7°C° 0 mm 4 mps 745 mmHg 91%
08:00 +7°C° 0.2 mm 4 mps 744 mmHg 89%
09:00 +8°C° 0.2 mm 5 mps 744 mmHg 87%
10:00 +9°C° 0.2 mm 5 mps 744 mmHg 85%
11:00 +9°C° 0.3 mm 5 mps 744 mmHg 80%
12:00 +9°C° 0.3 mm 6 mps 745 mmHg 76%
13:00 +10°C° 0.3 mm 6 mps 745 mmHg 72%
14:00 +9°C° 0.1 mm 6 mps 745 mmHg 73%
15:00 +9°C° 0.1 mm 6 mps 746 mmHg 74%
16:00 +8°C° 0.1 mm 5 mps 746 mmHg 76%
17:00 +8°C° 0.1 mm 6 mps 746 mmHg 77%
18:00 +8°C° 0.1 mm 6 mps 747 mmHg 78%
19:00 +8°C° 0.1 mm 6 mps 747 mmHg 79%
20:00 +8°C° 0.1 mm 6 mps 747 mmHg 81%
21:00 +7°C° 0.1 mm 6 mps 748 mmHg 83%
22:00 +7°C° 0.1 mm 5 mps 748 mmHg 85%
23:00 +7°C° 0 mm 5 mps 748 mmHg 86%

Tomorrow, 30 October, Friday

Time Temperature Precipitation Wind Pressure Humidity
00:00 +7°C° 0 mm 5 mps 749 mmHg 88%
01:00 +7°C° 0 mm 5 mps 749 mmHg 89%
02:00 +7°C° 0 mm 4 mps 749 mmHg 89%
03:00 +6°C° 0 mm 4 mps 749 mmHg 90%
04:00 +6°C° 0 mm 4 mps 749 mmHg 90%
05:00 +6°C° 0 mm 4 mps 749 mmHg 91%
06:00 +5°C° 0 mm 3 mps 749 mmHg 92%
07:00 +5°C° 0 mm 3 mps 749 mmHg 92%
08:00 +5°C° 0.1 mm 3 mps 749 mmHg 91%
09:00 +7°C° 0.1 mm 3 mps 749 mmHg 89%
10:00 +7°C° 0.1 mm 3 mps 749 mmHg 88%
11:00 +7°C° 0.7 mm 3 mps 749 mmHg 90%
12:00 +7°C° 0.7 mm 3 mps 748 mmHg 92%
13:00 +7°C° 0.7 mm 3 mps 748 mmHg 94%
14:00 +8°C° 0.5 mm 2 mps 748 mmHg 94%
15:00 +8°C° 0.5 mm 2 mps 748 mmHg 95%
16:00 +8°C° 0.5 mm 2 mps 748 mmHg 96%
17:00 +9°C° 0.3 mm 1 mps 749 mmHg 96%
18:00 +9°C° 0.3 mm 1 mps 749 mmHg 96%
19:00 +9°C° 0.3 mm 1 mps 749 mmHg 96%
20:00 +9°C° 0.1 mm 1 mps 750 mmHg 96%
21:00 +9°C° 0.1 mm 1 mps 750 mmHg 96%
22:00 +9°C° 0.1 mm 1 mps 751 mmHg 96%
23:00 +9°C° 0 mm 1 mps 751 mmHg 95%

Day after tomorrow, 31 October, Saturday

Time Temperature Precipitation Wind Pressure Humidity
00:00 +9°C° 0 mm 1 mps 751 mmHg 95%
01:00 +8°C° 0 mm 1 mps 752 mmHg 95%
02:00 +8°C° 0 mm 1 mps 752 mmHg 95%
03:00 +9°C° 0 mm 1 mps 753 mmHg 94%
04:00 +9°C° 0 mm 1 mps 753 mmHg 94%
05:00 +9°C° 0 mm 1 mps 754 mmHg 93%
06:00 +7°C° 0 mm 2 mps 754 mmHg 93%
07:00 +7°C° 0 mm 2 mps 754 mmHg 92%
08:00 +8°C° 0 mm 2 mps 755 mmHg 89%
09:00 +9°C° 0 mm 2 mps 755 mmHg 85%
10:00 +10°C° 0 mm 3 mps 755 mmHg 82%
11:00 +10°C° 0 mm 3 mps 755 mmHg 79%
12:00 +11°C° 0 mm 3 mps 755 mmHg 77%
13:00 +11°C° 0 mm 3 mps 756 mmHg 75%
14:00 +11°C° 0 mm 3 mps 755 mmHg 76%
15:00 +10°C° 0 mm 3 mps 755 mmHg 78%
16:00 +10°C° 0 mm 2 mps 755 mmHg 80%
17:00 +10°C° 0 mm 3 mps 756 mmHg 80%
18:00 +9°C° 0 mm 3 mps 756 mmHg 81%
19:00 +9°C° 0 mm 3 mps 756 mmHg 81%
20:00 +9°C° 0 mm 3 mps 756 mmHg 80%
21:00 +7°C° 0 mm 4 mps 756 mmHg 79%
22:00 +7°C° 0 mm 4 mps 755 mmHg 78%
23:00 +7°C° 0 mm 4 mps 755 mmHg 79%

1 November, Sunday

Time Temperature Precipitation Wind Pressure Humidity
00:00 +7°C° 0 mm 4 mps 755 mmHg 80%
01:00 +6°C° 0 mm 4 mps 755 mmHg 81%
02:00 +6°C° 0 mm 5 mps 755 mmHg 81%
03:00 +6°C° 0 mm 5 mps 755 mmHg 82%
04:00 +6°C° 0 mm 5 mps 754 mmHg 83%
05:00 +6°C° 0 mm 5 mps 754 mmHg 82%
06:00 +6°C° 0 mm 5 mps 754 mmHg 82%
07:00 +6°C° 0 mm 5 mps 753 mmHg 81%
08:00 +7°C° 0 mm 6 mps 753 mmHg 77%
09:00 +8°C° 0 mm 6 mps 753 mmHg 74%
10:00 +9°C° 0 mm 7 mps 753 mmHg 71%
11:00 +9°C° 0 mm 7 mps 753 mmHg 68%
12:00 +10°C° 0 mm 7 mps 752 mmHg 66%
13:00 +11°C° 0 mm 7 mps 752 mmHg 64%
14:00 +10°C° 0 mm 7 mps 751 mmHg 66%
15:00 +10°C° 0 mm 7 mps 751 mmHg 68%
16:00 +9°C° 0 mm 6 mps 751 mmHg 71%
17:00 +9°C° 0 mm 6 mps 750 mmHg 73%
18:00 +9°C° 0 mm 6 mps 750 mmHg 76%
19:00 +9°C° 0 mm 7 mps 750 mmHg 78%
20:00 +9°C° 0 mm 6 mps 750 mmHg 80%
21:00 +9°C° 0 mm 6 mps 750 mmHg 82%
22:00 +9°C° 0 mm 6 mps 750 mmHg 83%
23:00 +8°C° 0 mm 5 mps 750 mmHg 85%

2 November, Monday

Time Temperature Precipitation Wind Pressure Humidity
00:00 +8°C° 0 mm 5 mps 750 mmHg 87%
01:00 +8°C° 0 mm 5 mps 750 mmHg 89%
02:00 +8°C° 0 mm 5 mps 750 mmHg 90%
03:00 +8°C° 0 mm 5 mps 749 mmHg 90%
04:00 +8°C° 0 mm 5 mps 749 mmHg 90%
05:00 +8°C° 0 mm 5 mps 749 mmHg 90%
06:00 +8°C° 0 mm 5 mps 749 mmHg 90%
07:00 +8°C° 0 mm 5 mps 749 mmHg 90%
08:00 +9°C° 0 mm 5 mps 749 mmHg 87%
09:00 +10°C° 0 mm 5 mps 749 mmHg 83%
10:00 +12°C° 0 mm 5 mps 749 mmHg 79%
11:00 +13°C° 0 mm 5 mps 749 mmHg 77%
12:00 +14°C° 0 mm 6 mps 749 mmHg 76%
13:00 +14°C° 0 mm 6 mps 749 mmHg 74%
14:00 +14°C° 0 mm 5 mps 749 mmHg 76%
15:00 +14°C° 0 mm 5 mps 748 mmHg 78%
16:00 +13°C° 0 mm 5 mps 748 mmHg 80%
17:00 +13°C° 0 mm 5 mps 748 mmHg 81%
18:00 +13°C° 0 mm 5 mps 749 mmHg 83%
19:00 +13°C° 0 mm 5 mps 749 mmHg 84%
20:00 +13°C° 0 mm 5 mps 749 mmHg 86%
21:00 +13°C° 0 mm 5 mps 749 mmHg 87%
22:00 +12°C° 0 mm 5 mps 749 mmHg 89%
23:00 +12°C° 0 mm 5 mps 749 mmHg 89%

3 November, Tuesday

Time Temperature Precipitation Wind Pressure Humidity
00:00 +12°C° 0 mm 5 mps 749 mmHg 89%
01:00 +12°C° 0 mm 4 mps 749 mmHg 89%
02:00 +12°C° 0.3 mm 4 mps 749 mmHg 90%
03:00 +12°C° 0.3 mm 4 mps 749 mmHg 92%
04:00 +12°C° 0.3 mm 4 mps 750 mmHg 93%
05:00 +12°C° 0.4 mm 3 mps 750 mmHg 94%
06:00 +12°C° 0.4 mm 3 mps 750 mmHg 95%
07:00 +13°C° 0.4 mm 2 mps 751 mmHg 96%
08:00 +13°C° 0.7 mm 2 mps 751 mmHg 95%
09:00 +12°C° 0.7 mm 3 mps 752 mmHg 95%
10:00 +11°C° 0.7 mm 3 mps 752 mmHg 95%
11:00 +12°C° 0.9 mm 2 mps 753 mmHg 93%
12:00 +12°C° 0.9 mm 2 mps 753 mmHg 92%
13:00 +12°C° 0.9 mm 2 mps 753 mmHg 91%
14:00 +12°C° 0.5 mm 2 mps 754 mmHg 90%
15:00 +10°C° 0.5 mm 2 mps 754 mmHg 90%
16:00 +10°C° 0.5 mm 2 mps 754 mmHg 90%
17:00 +10°C° 0.4 mm 2 mps 754 mmHg 90%
18:00 +10°C° 0.4 mm 2 mps 755 mmHg 89%
19:00 +9°C° 0.4 mm 2 mps 755 mmHg 89%
20:00 +9°C° 0.3 mm 2 mps 755 mmHg 89%
21:00 +9°C° 0.3 mm 2 mps 755 mmHg 89%
22:00 +9°C° 0.3 mm 2 mps 756 mmHg 89%
23:00 +9°C° 0.3 mm 2 mps 756 mmHg 89%
Show more